This is the latest recevied weather packets stored in our database for station/object N6OIM. If no packets are shown the sender has not sent any weather packets the latest 10 day(s).
| Time | Temp. | Humidity | Pressure | Rain* | Wind** | Luminosity | Snow |
|---|---|---|---|---|---|---|---|
| 1777952005 | 12.78° C | 90% | 1013.4 hPa | 3.56 mm | - | - | - |
| 1777951713 | 12.78° C | 90% | 1013.4 hPa | 3.3 mm | - | - | - |
| 1777951401 | 12.78° C | 90% | 1013.4 hPa | 2.79 mm | - | - | - |
| 1777951109 | 12.78° C | 90% | 1013.4 hPa | 2.54 mm | - | - | - |
| 1777950798 | 12.78° C | 90% | 1013.5 hPa | 2.29 mm | - | - | - |
| 1777950507 | 12.78° C | 90% | 1013.6 hPa | 2.03 mm | - | - | - |
| 1777950198 | 12.78° C | 89% | 1013.6 hPa | 1.78 mm | - | - | - |
| 1777949907 | 12.78° C | 89% | 1013.6 hPa | 1.78 mm | - | - | - |
| 1777949615 | 12.78° C | 89% | 1013.5 hPa | 2.03 mm | - | - | - |
| 1777949305 | 12.78° C | 89% | 1013.2 hPa | 2.03 mm | - | - | - |
| 1777949013 | 12.78° C | 89% | 1013 hPa | 1.78 mm | - | - | - |
| 1777948701 | 12.78° C | 89% | 1013 hPa | 2.03 mm | - | - | - |
| 1777948409 | 12.78° C | 89% | 1012.8 hPa | 2.03 mm | - | - | - |
| 1777948099 | 12.78° C | 89% | 1012.7 hPa | 2.29 mm | - | - | - |
| 1777947808 | 12.78° C | 89% | 1012.6 hPa | 2.54 mm | - | - | - |
| 1777947502 | 12.78° C | 89% | 1012.6 hPa | 2.54 mm | - | - | - |
| 1777947213 | 12.78° C | 89% | 1012.6 hPa | 2.54 mm | - | - | - |
| 1777946902 | 13.33° C | 89% | 1012.7 hPa | 2.29 mm | - | - | - |
| 1777946610 | 13.33° C | 89% | 1012.9 hPa | 2.29 mm | - | - | - |
| 1777946300 | 13.33° C | 89% | 1012.9 hPa | 2.03 mm | - | - | - |
| 1777946012 | 13.33° C | 89% | 1012.8 hPa | 2.03 mm | - | - | - |
| 1777945702 | 13.33° C | 89% | 1012.8 hPa | 2.03 mm | - | - | - |
| 1777945411 | 13.33° C | 89% | 1012.8 hPa | 2.03 mm | - | - | - |
| 1777945103 | 13.33° C | 89% | 1012.8 hPa | 2.03 mm | - | - | - |
| 1777944811 | 13.33° C | 89% | 1012.8 hPa | 2.03 mm | - | - | - |
* Rain latest hour (hover to see other rain measurements)
** Current wind speed in m/s (hover to see current wind gust speed)